Weather History for PANT - November, 2012

Change the Weather History Date:

Tuesday, November 13, 2012

  Actual Average Record
Temperature  
Mean Temperature 41 °F 40 °F  
Max Temperature 43 °F 45 °F 54 °F (1976)
Min Temperature 38 °F 36 °F 16 °F (1955)
Degree Days  
Heating Degree Days 24 25  
Month to date heating degree days 311 307  
Since 1 July heating degree days 1739 1607  
Cooling Degree Days 0    
Month to date cooling degree days 0  
Year to date cooling degree days 7  
Moisture  
Dew Point 39 °F    
Average Humidity 0    
Maximum Humidity 0    
Minimum Humidity 0    
Precipitation  
Precipitation 0.00 in 0.41 in 2.50 in (2003)
Month to date precipitation 5.98 5.68  
Year to date precipitation 88.60 84.30  
Snow  
Snow 0.00 in 0.10 in 3.00 in (1968)
Month to date snowfall 0.0 1.0  
Since 1 July snowfall T 1.1  
Since 1 September snowfall 0.0 1.1  
Snow Depth 0.00 in    
Sea Level Pressure  
Sea Level Pressure 30.02 in    
Wind  
Wind Speed 2 mph (SE)    
Max Wind Speed 7 mph    
Max Gust Speed 8 mph    
Visibility 6 miles    
Events Fog , Rain    
T = Trace of Precipitation, MM = Missing Value Source: NWS Daily Summary

Daily Weather History Graph

Daily Weather History Graph

Search for Another Location

Airport or City:

Trip Planner

Search our weather history database for the weather conditions in past years. The results will help you decide how hot, cold, wet, or windy it might be!

Date:

Astronomy

Nov. 13, 2012 Rise Set
Actual Time 7:15 AM AKST 3:44 PM AKST
Civil Twilight 6:35 AM AKST 4:25 PM AKST
Nautical Twilight 5:50 AM AKST 5:09 PM AKST
Astronomical Twilight 5:08 AM AKST 5:52 PM AKST
Moon 7:06 AM AKST (11/13) 3:37 PM AKST (11/13)
Length of Visible Light 9h 50m
Length of Day
8h 28m
Waning Crescent, 0% of the Moon is Illuminated
Nov 13
Waning Crescent
Nov 13
New
Nov 20
First Quarter
Nov 28
Full
Dec 6
Last Quarter

Hourly Weather History & Observations

Time (AKST) Temp. Windchill Dew Point Humidity Pressure Visibility Wind Dir Wind Speed Gust Speed Precip Events Conditions
12:11 AM 39.2 °F - 39.2 °F 100% 29.97 in 10.0 mi Calm Calm - N/A   Overcast
12:19 AM 39.2 °F - 39.2 °F 100% 29.97 in 10.0 mi Calm Calm - N/A   Overcast
12:26 AM 39.2 °F - 37.4 °F 93% 29.97 in 10.0 mi Calm Calm - N/A   Overcast
12:53 AM 39.0 °F - 37.9 °F 96% 29.98 in 10.0 mi Calm Calm - N/A   Overcast
1:53 AM 39.0 °F - 37.9 °F 96% 29.98 in 10.0 mi Calm Calm - N/A   Overcast
3:50 AM 37.4 °F - 37.4 °F 100% 29.98 in 10.0 mi Calm Calm - N/A   Overcast
3:53 AM 37.9 °F - 37.9 °F 100% 29.99 in 10.0 mi Calm Calm - N/A   Overcast
4:53 AM 37.9 °F - 37.9 °F 100% 30.00 in 10.0 mi Calm Calm - N/A   Overcast
5:20 AM 37.4 °F - 37.4 °F 100% 29.99 in 1.8 mi Calm Calm - N/A   Overcast
5:37 AM 37.4 °F - 37.4 °F 100% 29.99 in 1.0 mi Calm Calm - N/A   Overcast
5:53 AM 37.9 °F - 37.9 °F 100% 30.00 in 1.0 mi Calm Calm - N/A   Mist
6:07 AM 37.4 °F - 37.4 °F 100% 30.00 in 0.8 mi Calm Calm - N/A   Mist
6:53 AM 37.9 °F - 37.0 °F 97% 30.01 in 0.8 mi Calm Calm - N/A   Mist
7:30 AM 37.4 °F - 37.4 °F 100% 30.01 in 0.2 mi Calm Calm - N/A Fog Fog
7:53 AM 37.9 °F - 37.9 °F 100% 30.02 in 0.2 mi Calm Calm - N/A Fog Fog
8:44 AM 39.2 °F 37.0 °F 37.4 °F 93% 30.03 in 0.5 mi Variable 3.5 mph - N/A Fog Fog
8:58 AM 39.2 °F 35.0 °F 37.4 °F 93% 30.03 in 2.0 mi SE 5.8 mph - N/A   Overcast
9:06 AM 37.4 °F 33.8 °F 37.4 °F 100% 30.03 in 8.0 mi SE 4.6 mph - N/A   Overcast
9:14 AM 37.4 °F 34.9 °F 37.4 °F 100% 30.03 in 1.8 mi SE 3.5 mph - N/A   Overcast
9:29 AM 39.2 °F - 39.2 °F 100% 30.04 in 0.8 mi Calm Calm - N/A   Overcast
9:34 AM 39.2 °F - 39.2 °F 100% 30.04 in 2.0 mi Calm Calm - N/A   Overcast
9:42 AM 39.2 °F - 39.2 °F 100% 30.04 in 10.0 mi Calm Calm - N/A   Overcast
9:53 AM 39.0 °F - 39.0 °F 100% 30.05 in 7.0 mi Calm Calm - N/A   Overcast
10:42 AM 39.2 °F 37.0 °F 39.2 °F 100% 30.05 in 10.0 mi ESE 3.5 mph - N/A   Overcast
10:53 AM 41.0 °F 37.1 °F 39.0 °F 93% 30.05 in 10.0 mi SE 5.8 mph - N/A   Overcast
11:53 AM 42.1 °F - 39.0 °F 89% 30.04 in 10.0 mi Calm Calm - N/A   Overcast
12:53 PM 42.1 °F 37.7 °F 39.0 °F 89% 30.04 in 10.0 mi SE 6.9 mph - N/A   Overcast
1:31 PM 42.8 °F 39.3 °F 39.2 °F 87% 30.03 in 10.0 mi SE 5.8 mph - N/A   Overcast
1:53 PM 43.0 °F 41.3 °F 39.0 °F 86% 30.04 in 10.0 mi SSE 3.5 mph - N/A   Overcast
2:53 PM 43.0 °F 41.3 °F 39.0 °F 86% 30.04 in 10.0 mi SSE 3.5 mph - N/A   Overcast
3:12 PM 42.8 °F 40.1 °F 39.2 °F 87% 30.03 in 10.0 mi SE 4.6 mph - N/A   Overcast
3:53 PM 42.1 °F 38.4 °F 39.0 °F 89% 30.03 in 10.0 mi SE 5.8 mph - N/A   Overcast
4:53 PM 42.1 °F 38.4 °F 37.9 °F 85% 30.02 in 10.0 mi SE 5.8 mph - N/A   Overcast
5:37 PM 42.8 °F 38.6 °F 39.2 °F 87% 30.02 in 10.0 mi SE 6.9 mph - N/A   Overcast
5:53 PM 41.0 °F 35.8 °F 39.0 °F 93% 30.02 in 10.0 mi SE 8.1 mph - N/A   Overcast
6:24 PM 42.8 °F 38.6 °F 39.2 °F 87% 30.02 in 5.0 mi SE 6.9 mph - N/A   Overcast
6:42 PM 42.8 °F 38.0 °F 39.2 °F 87% 30.02 in 2.5 mi SE 8.1 mph - N/A   Overcast
6:53 PM 42.1 °F 37.1 °F 41.0 °F 96% 30.03 in 2.5 mi SE 8.1 mph - N/A   Overcast
7:10 PM 42.8 °F 38.6 °F 41.0 °F 93% 30.02 in 2.5 mi SE 6.9 mph - 0.01 in Rain Light Rain
7:53 PM 42.1 °F 38.4 °F 42.1 °F 100% 30.03 in 2.5 mi SSE 5.8 mph - 0.04 in Rain Light Rain
8:53 PM 43.0 °F 39.5 °F 42.1 °F 97% 30.03 in 3.0 mi ESE 5.8 mph - 0.05 in Rain Rain
9:01 PM 42.8 °F 40.1 °F 42.8 °F 100% 30.02 in 2.5 mi SE 4.6 mph - 0.03 in Rain Rain
9:27 PM 42.8 °F 40.1 °F 42.8 °F 100% 30.03 in 7.0 mi SSE 4.6 mph - 0.10 in Rain Light Rain
9:53 PM 45.0 °F 42.6 °F 44.1 °F 97% 30.04 in 10.0 mi SSW 4.6 mph - 0.10 in   Overcast
10:47 PM 42.8 °F 41.1 °F 42.8 °F 100% 30.04 in 10.0 mi West 3.5 mph - N/A   Scattered Clouds
10:53 PM 43.0 °F - 42.1 °F 97% 30.05 in 10.0 mi Calm Calm - N/A   Scattered Clouds
11:19 PM 42.8 °F 40.1 °F 41.0 °F 93% 30.05 in 10.0 mi NW 4.6 mph - N/A   Mostly Cloudy
11:29 PM 42.8 °F 41.1 °F 41.0 °F 93% 30.05 in 10.0 mi Variable 3.5 mph - N/A   Mostly Cloudy
11:49 PM 42.8 °F - 41.0 °F 93% 30.05 in 1.5 mi Calm Calm - N/A   Overcast
11:53 PM 41.0 °F - 41.0 °F 100% 30.06 in 1.0 mi Calm Calm - N/A   Mist
11:56 PM 41.0 °F - 41.0 °F 100% 30.06 in 0.8 mi Calm Calm - N/A   Mist